User: anonymous   Login
Location: Unspecified
(0.0000°N, 0.0000°E)
Time: 04:32:16
(UTC+00:00)
Language:

ONEWEB-0383 - Orbit

View from above orbital plane
View from above orbital plane
View from above satellite
View from above satellite

Ground track
Ground track

The orbit is defined by the following mean orbital elements,

1 49309U          26145.42452610 +.00000000 +00000-0 +46294-4 0 00009
2 49309  87.8954 294.2376 0001921  92.8989 267.2360 13.14504227    04
Epoch (UTC): 25 May 2026 10:11:19
Eccentricity: 0.0001921
inclination: 87.8954°
perigee height: 1204 km
apogee height: 1207 km
right ascension of ascending node: 294.2376°
argument of perigee: 92.8989°
revolutions per day: 13.14504227
mean anomaly at epoch: 267.2360°

The dashed part of the orbit path shows where the satellite is in the earth's shadow,  

DLR